Location: ????
(30.1475°N, 31.1342°E)
Time: 07:51:47
(UTC+00:00)

Meteor 1-14 Rocket - Pass Details

Date: 02 April 2023
Orbit: 834 x 918 km, 81.3° (Epoch: 03 June)

Event Time Altitude Azimuth Distance (km) Brightness Sun altitude
Rises 00:07:29 0° 15° (NNE) 3,394 8.0 -43.5°
Reaches altitude 10° 00:11:01 10° 39° (NE) 2,466 7.2 -43.0°
Maximum altitude 00:14:08 15° 73° (ENE) 2,134 6.8 -42.5°
Enters shadow 00:15:03 15° 84° (E) 2,168 6.7 -42.3°
